Location: D�derode
(51.8092°N, 10.1065°E)
Time: 16:48:21
(UTC+00:00)

Cosmos 1812 - Visible Passes

Search period start: 16 April 2021 00:00
Search period end: 26 April 2021 00:00
Orbit: 516 x 520 km, 82.5° (Epoch: 16 April)

Date Brightness Start Highest point End Pass type
(mag) Time Alt. Az. Time Alt. Az. Time Alt. Az.
16 Apr 4.9 01:28:02 16° WNW 01:28:02 16° WNW 01:30:09 10° NNW visible
16 Apr 4.4 23:38:44 31° NE 23:38:44 31° NE 23:41:02 10° NNE visible
17 Apr 4.8 01:13:47 18° WNW 01:13:47 18° WNW 01:16:05 10° NNW visible
17 Apr 4.4 23:24:28 29° NE 23:24:28 29° NE 23:26:42 10° NNE visible
18 Apr 4.7 00:59:31 20° NW 00:59:31 20° NW 01:01:58 10° NNW visible
18 Apr 4.5 23:10:11 26° NE 23:10:11 26° NE 23:12:20 10° NNE visible
19 Apr 4.5 00:45:14 22° NW 00:45:14 22° NW 00:47:49 10° NNW visible
19 Apr 4.6 22:55:54 24° NE 22:55:54 24° NE 22:57:58 10° NNE visible
20 Apr 4.4 00:30:57 25° NW 00:30:57 25° NW 00:33:39 10° N visible
20 Apr 4.7 22:41:37 22° ENE 22:41:37 22° ENE 22:43:35 10° NNE visible
21 Apr 4.3 00:16:39 29° NW 00:16:39 29° NW 00:19:29 10° N visible
21 Apr 4.8 22:27:18 20° ENE 22:27:18 20° ENE 22:29:11 10° NE visible
22 Apr 4.1 00:02:21 32° NW 00:02:21 32° NW 00:05:16 10° N visible
22 Apr 4.8 22:12:59 18° ENE 22:12:59 18° ENE 22:14:44 10° NE visible
22 Apr 3.9 23:48:02 37° NW 23:48:02 37° NW 23:51:03 10° N visible
23 Apr 4.9 21:58:39 16° ENE 21:58:39 16° ENE 22:00:15 10° NE visible
23 Apr 3.7 23:33:42 42° NW 23:33:42 42° NW 23:36:49 10° N visible
24 Apr 5.0 21:44:19 14° ENE 21:44:19 14° ENE 21:45:42 10° NE visible
24 Apr 3.5 23:19:22 49° NW 23:19:22 49° NW 23:22:35 10° N visible
25 Apr 5.1 21:29:58 13° ENE 21:29:58 13° ENE 21:31:06 10° NE visible
25 Apr 3.2 23:05:00 56° NNW 23:05:00 56° NNW 23:08:19 10° N visible
